EDT,Max TemperatureF,Mean TemperatureF,Min TemperatureF,Max Dew PointF,MeanDew PointF,Min DewpointF,Max Humidity, Mean Humidity, Min Humidity, Max Sea Level PressureIn, Mean Sea Level PressureIn, Min Sea Level PressureIn, Max VisibilityMiles, Mean VisibilityMiles, Min VisibilityMiles, Max Wind SpeedMPH, Mean Wind SpeedMPH, Max Gust SpeedMPH,PrecipitationIn, CloudCover, Events, WindDirDegrees
2013-4-1,81,72,63,64,59,56,87,68,48,30.00,29.95,29.90,10,10,10,13,7,20,0.02,3,Rain-Thunderstorm,235
2013-4-2,75,64,54,57,49,38,97,65,28,30.13,30.06,29.99,10,8,1,12,3,17,0.00,1,,90
2013-4-3,78,66,54,63,58,50,94,81,50,30.11,30.08,30.04,10,8,3,15,5,26,0.28,4,Rain,78
2013-4-4,79,72,66,67,63,61,94,79,57,30.08,29.96,29.87,10,9,2,21,8,26,0.18,7,Rain,155
2013-4-5,68,62,54,63,55,48,94,87,72,30.04,29.92,29.83,10,8,2,12,5,18,0.22,7,Rain,25
2013-4-6,68,60,52,56,51,47,87,74,52,30.19,30.12,30.04,10,10,10,16,8,22,0.00,2,,21
2013-4-7,75,66,57,61,56,52,93,70,48,30.21,30.16,30.11,10,10,7,14,5,21,0.00,4,,117
2013-4-8,80,68,55,62,57,52,90,71,44,30.17,30.14,30.10,10,10,4,13,3,,0.00,0,,124
2013-4-9,81,69,57,65,60,55,94,76,52,30.21,30.16,30.11,10,8,2,15,4,21,0.00,0,,138
2013-4-10,82,69,57,66,60,54,94,76,54,30.15,30.10,30.02,10,9,2,14,5,22,0.00,1,,135
2013-4-11,86,78,71,70,68,66,90,79,58,30.02,29.93,29.84,10,10,10,18,9,26,0.04,5,Rain-Thunderstorm,167
2013-4-12,90,81,73,70,68,63,88,73,42,29.89,29.83,29.78,10,10,10,23,10,33,0.00,4,,207
2013-4-13,78,70,60,66,53,43,83,57,32,30.03,29.95,29.89,10,10,9,13,6,,0.00,2,Rain,352
2013-4-14,77,67,59,64,61,54,94,84,56,30.04,29.97,29.91,10,7,0,12,4,23,1.39,6,Rain-Thunderstorm,57
2013-4-15,82,71,60,65,62,59,100,88,49,30.14,29.96,29.83,10,6,0,15,5,20,0.00,3,Fog,336
2013-4-16,80,73,66,67,65,63,94,84,58,30.21,30.15,30.11,10,6,1,24,5,37,0.00,6,,68
2013-4-17,77,70,64,67,64,61,90,81,66,30.20,30.16,30.12,10,9,6,13,4,,0.01,1,,55
2013-4-18,82,73,64,68,64,61,94,79,51,30.11,30.05,30.00,10,7,1,13,3,18,0.00,2,,131
2013-4-19,91,80,66,72,68,63,87,73,40,30.02,29.97,29.88,10,10,3,20,10,29,0.19,5,Rain,201
2013-4-20,63,58,51,61,51,46,94,79,67,30.21,30.11,30.01,10,9,2,15,9,30,0.58,7,Rain,355
2013-4-21,69,64,59,61,56,50,84,73,65,30.22,30.18,30.12,10,9,6,17,11,30,0.01,7,Rain,40
2013-4-22,66,64,61,63,58,53,94,83,67,30.17,30.12,30.07,10,6,2,21,15,29,0.40,7,Rain,33
2013-4-23,69,63,57,56,55,53,89,71,61,30.19,30.14,30.09,10,10,10,13,8,20,0.00,1,,49
2013-4-24,81,67,54,62,58,51,90,70,50,30.18,30.14,30.11,10,10,9,10,3,16,0.00,0,,129
2013-4-25,86,72,60,65,61,57,90,70,41,30.22,30.17,30.12,10,10,6,8,2,,0.00,1,,348
2013-4-26,78,71,64,64,60,54,84,70,54,30.31,30.27,30.18,10,10,6,15,7,23,0.00,3,,32
2013-4-27,80,71,63,64,60,56,87,69,45,30.28,30.23,30.19,10,10,10,14,7,18,0.00,0,,64
2013-4-28,81,72,64,64,62,60,87,69,50,30.19,30.10,30.02,10,10,10,17,6,25,0.00,2,,132
2013-4-29,84,73,64,66,63,61,94,76,49,30.04,30.00,29.94,10,8,1,14,4,20,0.71,5,Rain-Thunderstorm,209
2013-4-30,82,72,64,66,63,62,94,87,54,30.06,29.99,29.96,10,5,0,14,2,,0.01,3,Fog-Rain,32